TimeEST,TemperatureF,Dew PointF,Humidity,Sea Level PressureIn,VisibilityMPH,Wind Direction,Wind SpeedMPH,Gust SpeedMPH,PrecipitationIn,Events,Conditions,WindDirDegrees,DateUTC
12:56 AM,30.0,17.1,59,30.03,10.0,NW,8.1,-,N/A,,Clear,310,2013-01-02 05:56:00
1:56 AM,30.0,15.1,54,30.04,10.0,NW,10.4,-,N/A,,Clear,310,2013-01-02 06:56:00
2:56 AM,28.9,15.1,56,30.05,10.0,WNW,9.2,-,N/A,,Clear,290,2013-01-02 07:56:00
3:56 AM,28.0,14.0,56,30.05,10.0,WNW,9.2,-,N/A,,Clear,300,2013-01-02 08:56:00
4:56 AM,28.0,14.0,56,30.06,10.0,WNW,9.2,-,N/A,,Clear,300,2013-01-02 09:56:00
5:56 AM,27.0,12.9,56,30.06,10.0,NW,9.2,-,N/A,,Clear,310,2013-01-02 10:56:00
6:56 AM,26.1,12.9,58,30.09,10.0,West,8.1,-,N/A,,Clear,280,2013-01-02 11:56:00
7:56 AM,26.1,12.0,55,30.12,10.0,WNW,11.5,-,N/A,,Clear,290,2013-01-02 12:56:00
8:56 AM,27.0,12.9,56,30.14,10.0,WNW,11.5,-,N/A,,Clear,300,2013-01-02 13:56:00
9:56 AM,27.0,12.0,53,30.15,10.0,NW,11.5,-,N/A,,Clear,320,2013-01-02 14:56:00
10:56 AM,28.0,12.0,51,30.16,10.0,WNW,11.5,-,N/A,,Clear,290,2013-01-02 15:56:00
11:56 AM,28.9,12.9,51,30.14,10.0,WNW,12.7,-,N/A,,Partly Cloudy,290,2013-01-02 16:56:00
12:56 PM,30.9,12.9,47,30.12,10.0,NW,8.1,-,N/A,,Partly Cloudy,310,2013-01-02 17:56:00
1:56 PM,30.9,12.9,47,30.12,10.0,NNW,12.7,-,N/A,,Clear,330,2013-01-02 18:56:00
2:56 PM,32.0,12.0,44,30.13,10.0,NNW,12.7,-,N/A,,Clear,340,2013-01-02 19:56:00
3:56 PM,32.0,12.9,45,30.14,10.0,North,6.9,-,N/A,,Clear,350,2013-01-02 20:56:00
4:56 PM,30.9,12.9,47,30.17,10.0,NNW,8.1,-,N/A,,Clear,330,2013-01-02 21:56:00
5:56 PM,28.9,14.0,54,30.18,10.0,NW,4.6,-,N/A,,Clear,310,2013-01-02 22:56:00
6:56 PM,27.0,14.0,58,30.20,10.0,WNW,3.5,-,N/A,,Clear,290,2013-01-02 23:56:00
7:56 PM,24.1,15.1,69,30.20,10.0,West,4.6,-,N/A,,Clear,270,2013-01-03 00:56:00
8:56 PM,25.0,16.0,69,30.21,10.0,SW,3.5,-,N/A,,Clear,220,2013-01-03 01:56:00
9:56 PM,24.1,15.1,69,30.22,10.0,West,4.6,-,N/A,,Clear,270,2013-01-03 02:56:00
10:56 PM,26.1,14.0,60,30.24,10.0,West,5.8,-,N/A,,Clear,260,2013-01-03 03:56:00
11:56 PM,26.1,14.0,60,30.25,10.0,WSW,3.5,-,N/A,,Clear,250,2013-01-03 04:56:00